This is the latest recevied weather packets stored in our database for station/object K7GFH-13. If no packets are shown the sender has not sent any weather packets the latest 10 day(s).
| Time | Temp. | Humidity | Pressure | Rain* | Wind** | Luminosity | Snow |
|---|---|---|---|---|---|---|---|
| 1778192192 | 19.44° C | 50% | 1019.7 hPa | 0 mm | - | 633 W/m² | - |
| 1778191290 | 19.44° C | 48% | 1019.7 hPa | 0 mm | - | 662 W/m² | - |
| 1778190386 | 20° C | 50% | 1019.9 hPa | 0 mm | - | 704 W/m² | - |
| 1778189482 | 18.89° C | 48% | 1020.2 hPa | 0 mm | - | 703 W/m² | - |
| 1778188577 | 18.33° C | 48% | 1020.4 hPa | 0 mm | - | 680 W/m² | - |
| 1778187672 | 17.78° C | 50% | 1020.5 hPa | 0 mm | - | 757 W/m² | - |
| 1778186767 | 17.78° C | 53% | 1020.6 hPa | 0 mm | - | 746 W/m² | - |
| 1778185866 | 17.22° C | 56% | 1020.9 hPa | 0 mm | - | 702 W/m² | - |
| 1778184964 | 17.22° C | 58% | 1021 hPa | 0 mm | - | 700 W/m² | - |
| 1778184059 | 17.78° C | 57% | 1021.2 hPa | 0 mm | - | 727 W/m² | - |
| 1778183156 | 16.67° C | 58% | 1021.5 hPa | 0 mm | - | 738 W/m² | - |
| 1778182252 | 16.11° C | 62% | 1021.6 hPa | 0 mm | - | 720 W/m² | - |
| 1778181352 | 16.67° C | 60% | 1021.6 hPa | 0 mm | - | 711 W/m² | - |
| 1778180451 | 15° C | 64% | 1021.8 hPa | 0 mm | - | 699 W/m² | - |
| 1778179549 | 15° C | 64% | 1022 hPa | 0 mm | - | 691 W/m² | - |
| 1778178646 | 13.89° C | 66% | 1022.1 hPa | 0 mm | - | 672 W/m² | - |
| 1778177741 | 14.44° C | 66% | 1022.1 hPa | 0 mm | - | 645 W/m² | - |
| 1778176836 | 13.89° C | 68% | 1022.2 hPa | 0 mm | - | 229 W/m² | - |
| 1778175933 | 13.33° C | 69% | 1022.4 hPa | 0 mm | - | 628 W/m² | - |
| 1778175031 | 13.89° C | 68% | 1022.6 hPa | 0 mm | - | 628 W/m² | - |
| 1778174131 | 13.33° C | 68% | 1022.5 hPa | 0 mm | - | 543 W/m² | - |
| 1778173228 | 12.78° C | 70% | 1022.6 hPa | 0 mm | - | 517 W/m² | - |
| 1778172322 | 11.67° C | 73% | 1022.6 hPa | 0 mm | - | 471 W/m² | - |
| 1778171421 | 11.67° C | 72% | 1022.6 hPa | 0 mm | - | 432 W/m² | - |
| 1778170520 | 11.67° C | 74% | 1022.6 hPa | 0 mm | - | 344 W/m² | - |
* Rain latest hour (hover to see other rain measurements)
** Current wind speed in m/s (hover to see current wind gust speed)